Location: Eindhoven
(51.4416°N, 5.4697°E)
Time: 10:16:19
(UTC+01:00)

Tiros 1 - Pass Details

Date: 18 November 2019
Orbit: 630 x 664 km, 48.4° (Epoch: 05 December)

Event Time Altitude Azimuth Distance (km) Brightness Sun altitude
Rises 19:15:20 0° 275° (W) 2,925 12.0 -23.0°
Reaches altitude 10° 19:17:42 10° 269° (W) 2,019 10.8 -23.4°
Maximum altitude 19:22:10 47° 196° (SSW) 842 7.7 -24.1°
Enters shadow 19:22:43 45° 174° (S) 873 7.7 -24.1°
